[[{"header":{"parameterUnit":"m.s-1","parameterCategory":1,"la1":30.2991,"la2":30.254,"lo1":-89.0895,"lo2":-89.0444,"dy":0.0017,"dx":0.0017,"nx":28,"ny":28,"refTime":"2023-08-26T21:00:00:Z","depth":0,"parameterNumber":2,"parameterNumberName":"U-component_of_WINDS"},"data":[0,0,0,0,0,0,0,0,0,0,0,0,0,0,0,0,0,0,0,0,0,0,0,0,0,0,0,0,0,0,0,0,0,0,0,0,0,0,0,0,0,0,0,0,0,0,0,0,0,0,0,0,0,0,0,0,0,0,1.1137,1.1139,0,1.1353,1.1355,1.1358,1.14,1.1399,1.1397,1.1395,1.1621,1.1628,1.1636,0,0,0,0,0,0,0,0,0,0,0,0,0,1.0764,1.077,1.1137,1.1139,1.1142,1.1352,1.1355,1.1358,1.1401,1.1399,1.1397,1.1395,1.1618,1.1627,1.1636,0,0,0,0,0,0,0,0,0,0,0,0,0,1.0947,1.0773,1.1136,1.1188,1.1195,1.1352,1.1356,1.1359,1.1401,1.1399,1.1396,1.1394,1.1615,1.1626,1.1638,1.1759,0,0,1.1672,1.1677,0,0,0,0,0,0,0,0,1.0937,1.0961,1.1178,1.1185,1.1193,1.1347,1.1307,1.1493,1.1402,1.1323,1.1395,1.1392,1.1532,1.155,1.1596,1.1769,1.1779,1.1673,1.168,1.1685,1.1688,0,0,0,0,0,0,0,1.0924,1.0952,1.1222,1.1181,1.119,1.1202,1.1225,1.1342,1.1439,1.133,1.1333,1.1358,1.1536,1.1585,1.1602,1.1782,1.1673,1.1683,1.169,1.1695,1.2064,1.2067,0,0,0,0,0,0,1.0902,1.0941,1.1215,1.1229,1.1056,1.1211,1.1237,1.13,1.1438,1.1457,1.136,1.1359,1.1567,1.1589,1.161,1.1759,1.1685,1.1696,1.1702,1.2061,1.2065,1.2068,0,0,0,0,0,0,1.0893,1.0926,1.1207,1.1086,1.1123,1.122,1.1291,1.1306,1.1355,1.1461,1.1479,1.1393,1.1566,1.1594,1.1721,1.1768,1.1701,1.1711,1.2057,1.2062,1.2066,1.2059,0,0,0,0,0,0,1.0883,1.0923,1.0969,1.1087,1.1129,1.1313,1.1294,1.1312,1.1374,1.1375,1.1496,1.1514,1.1566,1.1703,1.1732,1.1782,1.172,1.2054,1.2059,1.2065,1.2056,1.2063,1.2069,0,0,0,0,0,1.0869,1.0959,1.0971,1.1004,1.1189,1.1315,1.134,1.1397,1.1378,1.1425,1.1493,1.151,1.1758,1.1716,1.1749,1.1803,1.2051,1.2058,1.2064,1.2053,1.2062,1.2069,0,0,0,0,0,0,1.0846,1.0976,1.099,1.1121,1.1206,1.1322,1.1384,1.1404,1.1498,1.1495,1.1564,1.1591,1.1713,1.1771,1.1722,1.1927,1.1904,1.1917,1.1884,1.1893,1.19,1.1882,1.173,0,0,0,0,0,1.0856,1.0947,1.1056,1.1161,1.1203,1.1286,1.1344,1.138,1.1472,1.1509,1.1586,1.1676,1.1774,1.1837,1.1933,1.2065,1.2091,1.2118,1.2125,1.213,1.214,1.2213,1.2226,1.209,1.209,1.209,0,0,1.0878,1.096,1.1014,1.1159,1.1229,1.1322,1.1316,1.1416,1.1486,1.1525,1.1648,1.1707,1.1812,1.1941,1.2002,1.1994,1.2184,1.2139,1.2142,1.215,1.2221,1.2234,1.2245,1.2094,1.2094,1.2093,0,0,1.0964,1.1036,1.1131,1.1201,1.1308,1.1362,1.1385,1.1498,1.1538,1.1663,1.1693,1.1778,1.1946,1.2019,1.2078,1.2192,1.221,1.2221,1.2256,1.2326,1.2337,1.2346,1.2385,1.2399,1.2232,1.2232,1.2232,0,1.0978,1.1119,1.1177,1.1275,1.1337,1.1375,1.1471,1.1538,1.1671,1.1713,1.1702,1.1912,1.1985,1.2131,1.2158,1.2206,1.2233,1.2207,1.233,1.2341,1.2351,1.2388,1.2403,1.2232,1.2232,1.2232,1.2232,0,1.113,1.1227,1.1291,1.1416,1.1486,1.1583,1.1656,1.172,1.1751,1.1806,1.1933,1.2022,1.2136,1.2174,1.2206,1.2324,1.2315,1.2316,1.2294,1.2363,1.24,1.2415,1.2233,1.2233,1.2233,1.2233,0,0,1.1207,1.1363,1.1385,1.1442,1.1562,1.1638,1.1737,1.1847,1.19,1.1991,1.2075,1.2215,1.2216,1.2283,1.2324,1.2385,1.2467,1.2379,1.2382,1.239,1.2602,1.2599,1.2615,1.2481,1.2484,1.2486,1.2593,0,1.1307,1.1481,1.1537,1.1683,1.1773,1.181,1.1896,1.1979,1.2034,1.2119,1.2181,1.2278,1.2273,1.2314,1.2376,1.2444,1.251,1.2437,1.2559,1.2563,1.253,1.2635,1.2632,1.2728,1.2608,1.261,1.2612,0,1.1446,1.1537,1.1691,1.1799,1.1839,1.1914,1.2019,1.21,1.2196,1.2231,1.2305,1.234,1.2445,1.2418,1.2562,1.2511,1.2565,1.2606,1.2611,1.2623,1.259,1.2648,1.276,1.2774,1.2635,1.2634,1.2632,0,1.1484,1.1646,1.1759,1.1806,1.1935,1.1987,1.2044,1.2136,1.2199,1.2291,1.2332,1.2436,1.2493,1.2573,1.2635,1.261,1.2774,1.2752,1.2806,1.2804,1.2837,1.2834,1.2958,1.2875,1.2875,1.2874,1.2874,0,1.1589,1.1681,1.1777,1.1846,1.1951,1.2015,1.2117,1.2176,1.2258,1.234,1.238,1.2456,1.2534,1.2621,1.2671,1.2782,1.2808,1.284,1.2851,1.2835,1.2831,1.287,1.2864,1.2878,1.2877,1.2877,1.2876,0,1.1648,1.1716,1.1842,1.1953,1.1983,1.2055,1.2151,1.222,1.2276,1.2379,1.2407,1.2496,1.26,1.267,1.2804,1.2838,1.2958,1.297,1.2925,1.293,1.2979,1.2973,1.3131,1.3154,1.3057,1.3058,1.3058,0,1.1709,1.1781,1.19,1.1956,1.2012,1.2104,1.2167,1.2233,1.2297,1.241,1.2466,1.2572,1.266,1.2825,1.2902,1.3004,1.3017,1.3066,1.3033,1.3014,1.3016,1.301,1.3017,1.307,1.3071,1.3071,1.3072,0,1.1809,1.1839,1.1928,1.2029,1.2103,1.2186,1.227,1.2314,1.2394,1.2465,1.257,1.2639,1.2774,1.2879,1.2988,1.3048,1.3073,1.3082,1.3099,1.3082,1.3052,1.3067,1.2937,1.3078,1.3077,1.3077,1.3076,1.3076,1.1871,1.1936,1.2029,1.2126,1.2196,1.2272,1.2342,1.2406,1.2495,1.2609,1.2643,1.2753,1.2847,1.2996,1.3057,1.3144,1.314,1.3166,1.3172,1.3177,1.3175,1.304,1.3165,1.3165,1.3165,1.3165,1.3165,0,1.1971,1.2033,1.2122,1.2236,1.2313,1.233,1.2423,1.2486,1.2581,1.2666,1.2751,1.2873,1.2974,1.3059,1.3164,1.3218,1.3232,1.3243,1.3239,1.3252,1.3174,1.3148,1.323,1.323,1.323,1.323,1.3229,1.3229,1.2032,1.2142,1.2183,1.2328,1.239,1.2496,1.2548,1.2619,1.2686,1.2819,1.2903,1.2958,1.3043,1.3154,1.3248,1.3271,1.3307,1.3315,1.3339,1.3265,1.3258,1.325,1.3225,1.3322,1.3323,1.341,1.341,1.3411]},{"header":{"parameterUnit":"m.s-1","parameterCategory":1,"la1":30.2991,"la2":30.254,"lo1":-89.0895,"lo2":-89.0444,"dy":0.0017,"dx":0.0017,"nx":28,"ny":28,"refTime":"2023-08-26T21:00:00:Z","depth":0,"parameterNumber":3,"parameterNumberName":"V-component_of_WINDS"},"data":[0,0,0,0,0,0,0,0,0,0,0,0,0,0,0,0,0,0,0,0,0,0,0,0,0,0,0,0,0,0,0,0,0,0,0,0,0,0,0,0,0,0,0,0,0,0,0,0,0,0,0,0,0,0,0,0,0,0,3.1215,3.1215,0,3.1203,3.1202,3.1202,3.1139,3.1137,3.1136,3.1134,3.112,3.1121,3.1122,0,0,0,0,0,0,0,0,0,0,0,0,0,3.1182,3.1183,3.1215,3.1215,3.1215,3.1203,3.1202,3.1202,3.1139,3.1137,3.1135,3.1134,3.112,3.1121,3.1122,0,0,0,0,0,0,0,0,0,0,0,0,0,3.1186,3.1184,3.1215,3.1182,3.1179,3.1203,3.1202,3.1202,3.1139,3.1137,3.1135,3.1133,3.112,3.1121,3.1123,3.1177,0,0,3.1127,3.1128,0,0,0,0,0,0,0,0,3.1186,3.1187,3.1187,3.1184,3.1181,3.117,3.1186,3.1194,3.114,3.1154,3.1134,3.1132,3.1139,3.1138,3.1141,3.1177,3.1176,3.1127,3.1128,3.1129,3.1129,0,0,0,0,0,0,0,3.1186,3.1187,3.121,3.1187,3.1183,3.1167,3.1165,3.1187,3.1159,3.1153,3.1148,3.1148,3.1136,3.114,3.114,3.1176,3.1127,3.1129,3.113,3.113,3.1252,3.1254,0,0,0,0,0,0,3.119,3.1188,3.1211,3.121,3.1178,3.1169,3.1167,3.1176,3.1159,3.1154,3.115,3.1145,3.1138,3.1138,3.1139,3.1199,3.1129,3.113,3.1131,3.1249,3.1252,3.1255,0,0,0,0,0,0,3.119,3.1193,3.1211,3.1197,3.1198,3.1172,3.1182,3.1177,3.118,3.1156,3.1151,3.1158,3.1136,3.1137,3.1167,3.1198,3.1131,3.1133,3.1247,3.125,3.1253,3.1321,0,0,0,0,0,0,3.1189,3.1193,3.1214,3.1198,3.1199,3.124,3.1184,3.1178,3.1183,3.1176,3.1163,3.1158,3.1135,3.1165,3.1169,3.1199,3.1134,3.1244,3.1248,3.1252,3.1316,3.1326,3.1335,0,0,0,0,0,3.1188,3.1235,3.1216,3.1219,3.1225,3.1242,3.1243,3.1215,3.1185,3.1206,3.119,3.1159,3.1195,3.1169,3.1173,3.1203,3.1242,3.1247,3.1252,3.1311,3.1324,3.1335,0,0,0,0,0,0,3.1255,3.1232,3.1211,3.1253,3.125,3.1232,3.1256,3.123,3.1235,3.1228,3.1193,3.1191,3.1225,3.1218,3.119,3.1253,3.1213,3.1219,3.1257,3.1269,3.1278,3.1278,3.1135,0,0,0,0,0,3.1275,3.1291,3.127,3.1309,3.1309,3.1283,3.1289,3.1268,3.1263,3.1261,3.1248,3.1244,3.1254,3.1261,3.127,3.1315,3.131,3.1338,3.1348,3.1356,3.136,3.1381,3.1392,3.1272,3.1272,3.1271,0,0,3.1315,3.1305,3.1317,3.1322,3.1317,3.1333,3.1282,3.1302,3.1313,3.1264,3.1291,3.1282,3.1275,3.1312,3.1328,3.1306,3.1393,3.1362,3.1369,3.1369,3.1387,3.1399,3.1409,3.1275,3.1274,3.1274,0,0,3.1397,3.1392,3.1423,3.1418,3.1411,3.1394,3.1401,3.1386,3.1377,3.1404,3.1367,3.1379,3.1398,3.1394,3.1394,3.1472,3.1442,3.1476,3.1526,3.1546,3.1555,3.1564,3.1588,3.1598,3.1482,3.1482,3.1482,0,3.1448,3.1471,3.1442,3.1463,3.1465,3.1422,3.1451,3.1449,3.1445,3.1447,3.1424,3.1444,3.1437,3.1471,3.149,3.1493,3.1498,3.1476,3.1557,3.1565,3.1572,3.1595,3.1605,3.1486,3.1485,3.1485,3.1485,0,3.1533,3.155,3.1575,3.1571,3.1577,3.1603,3.1576,3.1585,3.1563,3.1547,3.1573,3.1563,3.1567,3.1574,3.1553,3.1604,3.1591,3.1563,3.1521,3.1587,3.1608,3.1617,3.1491,3.149,3.1489,3.1488,0,0,3.1655,3.1634,3.1644,3.164,3.1628,3.164,3.1663,3.1667,3.1673,3.1673,3.1689,3.1705,3.1678,3.1679,3.1657,3.1676,3.1734,3.1645,3.1644,3.1659,3.1786,3.1805,3.1816,3.1715,3.1717,3.1718,3.1785,0,3.1731,3.1768,3.1741,3.1783,3.1796,3.1755,3.1774,3.1769,3.1755,3.1763,3.1748,3.1758,3.1724,3.1724,3.174,3.1724,3.1759,3.1719,3.1728,3.1729,3.1728,3.1827,3.1848,3.1912,3.1794,3.1795,3.1796,0,3.1823,3.1825,3.1868,3.185,3.1855,3.1873,3.1873,3.1883,3.1874,3.1863,3.1863,3.1836,3.1855,3.1816,3.1841,3.1815,3.1817,3.181,3.1811,3.1809,3.1765,3.1824,3.1932,3.194,3.181,3.1809,3.1808,0,3.1904,3.1917,3.1943,3.1942,3.1924,3.1937,3.193,3.192,3.1923,3.1923,3.1924,3.1927,3.1928,3.193,3.1903,3.1878,3.1931,3.189,3.192,3.192,3.1931,3.193,3.2037,3.1938,3.1937,3.1937,3.1937,0,3.1989,3.2016,3.1979,3.1995,3.2023,3.1992,3.2021,3.2009,3.2,3.2012,3.1978,3.199,3.1956,3.1964,3.1943,3.1965,3.1967,3.1957,3.195,3.1958,3.1959,3.1957,3.1951,3.194,3.1939,3.1939,3.1938,0,3.2083,3.2059,3.2085,3.2065,3.2061,3.2082,3.2065,3.2078,3.2062,3.2077,3.2079,3.2053,3.206,3.2035,3.2039,3.2025,3.2057,3.2045,3.2059,3.2054,3.2084,3.2081,3.2192,3.2203,3.2099,3.21,3.2101,0,3.2137,3.2156,3.2138,3.2144,3.2138,3.2148,3.215,3.2121,3.2124,3.2116,3.2129,3.2134,3.2136,3.2149,3.213,3.2132,3.2118,3.2156,3.2118,3.2124,3.2114,3.2112,3.2113,3.2164,3.2165,3.2166,3.2167,0,3.2235,3.2222,3.2227,3.2227,3.2231,3.223,3.2227,3.2233,3.2201,3.2207,3.2213,3.2215,3.2217,3.2221,3.2219,3.2211,3.2183,3.218,3.2186,3.2193,3.2199,3.2193,3.2078,3.2177,3.2176,3.2175,3.2174,3.2174,3.2308,3.2322,3.2311,3.2317,3.2311,3.2309,3.2319,3.2304,3.2309,3.2308,3.2291,3.23,3.229,3.2284,3.2278,3.2284,3.2266,3.2276,3.2278,3.2281,3.2284,3.22,3.2284,3.2284,3.2284,3.2284,3.2283,0,3.2401,3.2392,3.2398,3.2393,3.2398,3.2372,3.2366,3.2371,3.238,3.2373,3.2375,3.2382,3.2385,3.2366,3.2366,3.2375,3.2362,3.2376,3.2373,3.2371,3.2302,3.2295,3.2386,3.2386,3.2386,3.2386,3.2386,3.2386,3.245,3.2472,3.2457,3.2475,3.2465,3.2474,3.2473,3.2469,3.2463,3.2472,3.2474,3.2462,3.2449,3.2448,3.2449,3.2444,3.2444,3.2462,3.2452,3.2387,3.2377,3.2367,3.236,3.2463,3.2463,3.252,3.252,3.2521]}]]